DateTimeUTC,F1_A11,F1_S11,BsB_S11,BsG_S11,BsR_S11,BbsB_S11,BbsG_S11,BbsR_S11,BaB_A11,BaG_A11,BaR_A11,T_S11,U_S11,P_S11,T1_A11
2020-08-16T00:00:00Z,00000380,20000600,,,,,,,,,,23.7,03.0,0672.7,30.8
2020-08-16T00:01:00Z,00000380,20000600,,,,,,,,,,23.8,03.0,0672.7,30.8
2020-08-16T00:02:00Z,00000380,20000600,,,,,,,,,,23.8,03.0,0672.7,30.8
2020-08-16T00:03:00Z,00000380,60000600,,,,,,,,,,23.8,02.8,0672.7,30.8
2020-08-16T00:04:00Z,00000380,40000600,0000.58,0000.35,0000.41,-000.06,0000.18,-000.29,0000.19,0000.12,0000.03,23.6,02.9,0673.7,30.8
2020-08-16T00:05:00Z,00000380,00000600,0000.85,0000.03,0000.64,-000.28,0000.20,0000.30,-000.01,0000.04,0000.01,23.6,03.0,0673.8,30.8
2020-08-16T00:06:00Z,00000380,00000600,0000.83,0000.36,0000.40,0000.04,0000.10,-000.48,-000.19,-000.10,-000.07,23.6,03.0,0673.8,30.9
2020-08-16T00:07:00Z,00000380,00000600,0000.50,0000.80,0000.24,-000.59,0000.33,-000.10,0000.00,0000.07,-000.05,23.5,03.0,0673.8,30.8
2020-08-16T00:08:00Z,00000380,00000600,0000.66,0000.64,0000.38,0000.20,0000.14,-000.44,0000.22,0000.04,0000.02,23.5,03.0,0673.7,30.8
2020-08-16T00:09:00Z,00000380,00000600,0000.89,0000.65,0000.46,-000.09,0000.08,0000.20,-000.02,0000.07,0000.19,23.5,02.9,0673.7,30.8
2020-08-16T00:10:00Z,00000380,00000600,0001.10,0000.13,0000.28,0000.10,0000.41,0000.30,0000.05,-000.13,-000.02,23.5,03.0,0673.7,30.8
2020-08-16T00:11:00Z,00000380,00000600,-000.07,0000.28,0000.40,-000.80,0000.16,0000.18,-000.10,-000.02,-000.09,23.5,02.9,0673.7,30.8
2020-08-16T00:12:00Z,00000380,00000600,0001.60,0000.30,0000.60,-000.69,0000.43,0000.09,0000.04,0000.06,-000.04,23.5,02.9,0673.6,30.8
2020-08-16T00:13:00Z,00000380,00000600,0000.80,0000.32,-000.09,-000.30,0000.26,0000.14,-000.15,-000.11,0000.11,23.5,02.9,0673.6,30.8
2020-08-16T00:14:00Z,00000380,00000600,-000.09,-000.09,0000.22,-000.16,0000.10,0000.09,0000.13,0000.12,-000.07,23.5,02.9,0673.6,30.8
2020-08-16T00:15:00Z,00000380,00000600,0000.40,0000.46,0000.21,-000.22,0000.26,-000.46,0000.01,-000.01,-000.06,23.5,02.9,0673.6,30.8
2020-08-16T00:16:00Z,00000380,00000600,0001.06,0000.53,0000.51,0000.28,0000.22,0000.28,0000.01,0000.10,0000.12,23.5,02.9,0673.6,30.8
2020-08-16T00:17:00Z,00000380,00000600,0000.83,-000.36,0000.23,0000.17,-000.15,-000.03,0000.06,-000.13,-000.05,23.4,02.9,0673.6,30.8
2020-08-16T00:18:00Z,00000380,00000600,0000.09,0000.02,0000.26,0000.03,0000.07,0000.05,-000.17,-000.04,0000.08,23.4,02.9,0673.7,30.8
2020-08-16T00:19:00Z,00000380,00000600,0000.04,0000.05,0000.05,-000.37,0000.29,0000.06,0000.01,-000.03,-000.01,23.5,02.8,0673.8,30.8
2020-08-16T00:20:00Z,00000380,00000600,0000.31,0000.05,0000.35,-000.46,0000.00,-000.25,0000.01,0000.05,0000.03,23.5,02.9,0673.8,30.9
2020-08-16T00:21:00Z,00000380,00000600,0000.23,0000.19,0000.78,0000.11,0000.22,0000.05,0000.06,-000.09,-000.04,23.5,02.9,0673.8,30.8
2020-08-16T00:22:00Z,00000380,00000600,-000.02,0000.20,0000.76,-000.18,0000.52,0000.11,-000.04,0000.21,-000.02,23.5,02.9,0673.8,30.9
2020-08-16T00:23:00Z,00000380,00000600,0000.51,-000.01,0000.45,-000.04,0000.15,0000.05,-000.02,-000.04,0000.07,23.5,02.8,0673.8,30.8
2020-08-16T00:24:00Z,00000380,00000600,0000.14,0000.12,0000.63,-000.29,0000.36,0000.28,-000.08,-000.13,-000.08,23.5,02.8,0673.8,30.8
2020-08-16T00:25:00Z,00000380,00000600,0001.75,0000.38,0000.44,-000.19,0000.06,-000.05,0000.16,0000.12,0000.06,23.4,02.8,0673.8,30.8
2020-08-16T00:26:00Z,00000380,00000600,0000.74,0000.11,0000.53,-000.04,-000.08,0000.26,0000.05,0000.05,0000.04,23.5,02.8,0673.8,30.8
2020-08-16T00:27:00Z,00000380,00000600,0000.19,0000.07,0000.35,0000.06,0000.56,0000.50,-000.01,0000.03,-000.09,23.4,02.8,0673.8,30.8
2020-08-16T00:28:00Z,00000380,00000600,0000.74,0000.40,0000.28,0000.69,0000.16,0000.10,-000.04,-000.06,0000.02,23.4,02.8,0673.7,30.8
2020-08-16T00:29:00Z,00000380,00000600,0000.41,0000.43,0000.27,0000.36,-000.03,0000.03,0000.06,0000.06,0000.06,23.4,02.8,0673.7,30.8
2020-08-16T00:30:00Z,00000380,00000600,0001.17,0000.46,-000.00,0000.08,0000.05,0000.31,0000.01,-000.05,0000.01,23.4,02.8,0673.7,30.8
2020-08-16T00:31:00Z,00000380,00000600,0000.09,-000.04,0000.94,0000.96,0000.22,0000.48,0000.14,0000.02,0000.05,23.4,02.8,0673.7,30.8
2020-08-16T00:32:00Z,00000380,00000600,0000.54,-000.23,0001.02,0000.35,0000.77,0000.20,0000.12,-000.00,0000.00,23.4,02.8,0673.7,30.8
2020-08-16T00:33:00Z,00000380,00000600,0000.94,0000.86,0000.21,-000.34,0000.44,0000.37,-000.28,0000.00,-000.10,23.4,02.8,0673.7,30.8
2020-08-16T00:34:00Z,00000380,00000600,0000.87,0000.42,0000.39,-000.01,0000.63,-000.16,0000.11,-000.03,0000.05,23.4,02.8,0673.8,30.8
2020-08-16T00:35:00Z,00000380,00000600,0000.17,0000.09,0000.32,-000.34,0000.46,-000.01,-000.03,0000.13,0000.09,23.5,02.8,0673.8,30.9
2020-08-16T00:36:00Z,00000380,00000600,-000.43,0000.55,0000.15,-000.36,0000.18,-000.18,-000.04,-000.03,0000.02,23.5,02.8,0673.8,30.9
2020-08-16T00:37:00Z,00000380,00000600,0000.15,0000.46,0000.14,0000.05,0000.04,0000.29,0000.03,0000.07,-000.02,23.5,02.7,0673.8,30.9
2020-08-16T00:38:00Z,00000380,00000600,0000.67,0000.47,0000.58,0000.43,0000.21,0000.25,-000.04,-000.12,-000.10,23.5,02.8,0673.8,30.8
2020-08-16T00:39:00Z,00000380,00000600,0001.11,0000.46,0000.32,-000.37,0000.39,-000.11,0000.15,0000.19,-000.01,23.4,02.7,0673.8,30.8
2020-08-16T00:40:00Z,00000380,00000600,0000.92,-000.36,0000.07,0000.39,0000.33,-000.07,-000.12,-000.01,0000.18,23.4,02.7,0673.8,30.8
2020-08-16T00:41:00Z,00000380,00000600,-000.00,-000.47,0000.87,-000.39,0000.55,0000.12,0000.07,-000.02,-000.17,23.4,02.7,0673.8,30.8
2020-08-16T00:42:00Z,00000380,00000600,0000.37,0000.17,0000.03,0000.09,0000.46,0000.09,0000.08,0000.20,0000.25,23.4,02.7,0673.8,30.8
2020-08-16T00:43:00Z,00000380,00000600,0000.45,0000.11,0000.35,-000.66,0000.01,0000.47,0000.10,0000.08,-000.08,23.4,02.7,0673.7,30.8
2020-08-16T00:44:00Z,00000380,00000600,-000.00,0000.81,0000.35,0000.26,0000.56,-000.08,-000.04,-000.16,-000.07,23.4,02.7,0673.7,30.8
2020-08-16T00:45:00Z,00000380,00000600,-000.04,0000.40,0000.15,0000.19,-000.01,0000.01,-000.00,-000.04,0000.16,23.4,02.7,0673.7,30.8
2020-08-16T00:46:00Z,00000380,00000600,0000.54,0000.16,0000.97,0000.19,0000.09,0000.30,0000.06,0000.11,0000.06,23.4,02.8,0673.7,30.8
2020-08-16T00:47:00Z,00000380,00000600,0001.58,0000.45,0000.58,-000.22,0000.08,0000.46,-000.07,-000.01,-000.12,23.4,02.8,0673.7,30.8
2020-08-16T00:48:00Z,00000380,00000600,0000.64,0000.76,0000.49,-000.40,0000.13,0000.09,0000.03,-000.04,0000.08,23.4,02.8,0673.8,30.8
2020-08-16T00:49:00Z,00000380,00000600,-000.32,0000.14,0000.60,-000.39,0000.63,0000.47,0000.11,0000.00,0000.05,23.4,02.8,0673.8,30.8
2020-08-16T00:50:00Z,00000380,00000600,0000.91,-000.33,0000.43,-000.11,-000.00,0000.34,-000.04,0000.01,-000.17,23.4,02.8,0673.8,30.9
2020-08-16T00:51:00Z,00000380,00000600,0000.63,0000.07,0000.21,-000.19,0000.33,0000.27,-000.01,0000.03,0000.25,23.4,02.8,0673.8,30.9
2020-08-16T00:52:00Z,00000380,00000600,0000.74,-000.16,0000.49,0000.03,0000.45,-000.24,-000.02,0000.05,-000.24,23.4,02.8,0673.9,30.9
2020-08-16T00:53:00Z,00000380,00000600,0001.35,0000.75,-000.03,0000.26,0000.06,0000.28,-000.08,0000.02,0000.16,23.4,02.8,0673.8,30.8
2020-08-16T00:54:00Z,00000380,00000600,0000.37,-000.13,0000.45,-000.47,0000.16,0000.03,0000.30,0000.15,-000.02,23.4,02.8,0673.8,30.8
2020-08-16T00:55:00Z,00000380,00000600,0000.42,0000.16,0000.36,-000.18,0000.17,0000.30,-000.17,0000.03,0000.10,23.4,02.8,0673.8,30.8
2020-08-16T00:56:00Z,00000380,00000600,0000.91,0000.21,0000.43,-000.13,0000.06,0000.15,0000.11,-000.01,-000.01,23.4,02.8,0673.8,30.8
2020-08-16T00:57:00Z,00000380,40000600,,,,,,,,,,23.4,02.6,0673.7,30.8
2020-08-16T00:58:00Z,00000380,60000600,,,,,,,,,,23.5,02.8,0672.8,30.8
2020-08-16T00:59:00Z,00000380,20000600,,,,,,,,,,23.6,02.7,0672.7,30.8
2020-08-16T01:00:00Z,00000380,20000600,,,,,,,,,,23.6,02.6,0672.7,30.8
2020-08-16T01:01:00Z,00000380,20000600,,,,,,,,,,23.6,02.6,0672.7,30.8
2020-08-16T01:02:00Z,00000380,20000600,,,,,,,,,,23.6,02.6,0672.7,30.8
2020-08-16T01:03:00Z,00000380,60000600,,,,,,,,,,23.6,02.6,0672.7,30.8
2020-08-16T01:04:00Z,00000380,40000600,0000.92,0000.26,0000.00,0001.06,0000.23,0000.29,0000.06,0000.20,0000.01,23.5,02.6,0673.8,30.8
2020-08-16T01:05:00Z,00000380,00000600,0001.01,0000.14,0000.06,0000.96,-000.10,0000.01,-000.03,-000.12,-000.23,23.5,02.6,0673.9,30.9
2020-08-16T01:06:00Z,00000380,00000600,0000.59,-000.13,-000.05,0000.24,-000.04,-000.06,-000.05,-000.10,0000.19,23.5,02.7,0673.9,30.9
2020-08-16T01:07:00Z,00000380,00000600,0000.58,0000.38,-000.56,-000.14,0000.03,0000.30,0000.04,0000.14,0000.05,23.5,02.7,0673.9,30.9
2020-08-16T01:08:00Z,00000380,00000600,0000.09,0000.15,0000.24,0000.07,0000.32,0000.08,-000.09,0000.08,-000.02,23.4,02.6,0673.8,30.8
2020-08-16T01:09:00Z,00000380,00000600,0000.74,0000.60,0000.48,0000.95,-000.14,0000.14,0000.16,-000.17,-000.05,23.4,02.6,0673.8,30.8
2020-08-16T01:10:00Z,00000380,00000600,0001.28,0000.27,0000.07,0001.19,-000.04,-000.16,0000.04,0000.13,0000.16,23.4,02.6,0673.8,30.8
2020-08-16T01:11:00Z,00000380,00000600,-000.45,0000.22,0000.09,0000.14,0000.20,0000.31,-000.15,-000.03,-000.14,23.4,02.6,0673.8,30.8
2020-08-16T01:12:00Z,00000380,00000600,0000.18,0000.64,0000.09,0001.02,0000.04,0000.04,0000.10,0000.16,0000.06,23.3,02.6,0673.8,30.8
2020-08-16T01:13:00Z,00000380,00000600,-000.14,0001.00,-000.46,0000.25,0000.05,-000.25,0000.03,-000.14,-000.09,23.3,02.7,0673.7,30.8
2020-08-16T01:14:00Z,00000380,00000600,0000.63,0000.25,-000.10,0000.34,0000.33,0000.03,-000.02,0000.05,0000.08,23.3,02.6,0673.7,30.8
2020-08-16T01:15:00Z,00000380,00000600,0000.33,0000.48,-000.27,0000.25,-000.11,-000.05,-000.11,-000.05,0000.12,23.3,02.6,0673.7,30.8
2020-08-16T01:16:00Z,00000380,00000600,0000.34,0000.21,-000.15,0000.69,0000.04,-000.10,0000.17,0000.00,-000.20,23.3,02.7,0673.7,30.8
2020-08-16T01:17:00Z,00000380,00000600,0000.72,-000.16,0000.05,0000.36,-000.25,-000.07,0000.04,-000.05,0000.11,23.3,02.6,0673.7,30.8
2020-08-16T01:18:00Z,00000380,00000600,0001.29,0000.62,0000.06,0000.27,0000.49,0000.05,-000.13,-000.07,0000.11,23.3,02.6,0673.8,30.8
2020-08-16T01:19:00Z,00000380,00000600,0000.36,0000.29,-000.38,0000.40,-000.11,0000.35,0000.11,0000.09,-000.03,23.4,02.6,0673.9,30.8
2020-08-16T01:20:00Z,00000380,00000600,0001.13,0000.06,0000.07,0000.79,0000.33,-000.13,-000.11,-000.06,-000.14,23.4,02.5,0673.9,30.8
2020-08-16T01:21:00Z,00000380,00000600,0000.34,0000.09,0000.02,0000.11,0000.18,0000.31,0000.01,0000.17,0000.36,23.4,02.5,0673.9,30.8
2020-08-16T01:22:00Z,00000380,00000600,0001.33,0000.10,-000.16,-000.09,-000.27,0000.22,0000.02,-000.15,-000.23,23.4,02.6,0673.9,30.8
2020-08-16T01:23:00Z,00000380,00000600,0000.67,0000.38,-000.07,0000.41,0000.07,-000.07,-000.01,0000.13,0000.05,23.3,02.5,0673.9,30.8
2020-08-16T01:24:00Z,00000380,00000600,-000.07,-000.11,0000.04,0001.16,0000.09,0000.10,0000.05,0000.04,0000.08,23.3,02.5,0673.8,30.8
2020-08-16T01:25:00Z,00000380,00000600,0000.70,0000.06,0000.21,0000.05,0000.10,0000.38,0000.03,0000.10,0000.02,23.3,02.5,0673.8,30.8
2020-08-16T01:26:00Z,00000380,00000600,0000.90,0000.39,-000.15,0001.41,-000.09,0000.21,-000.08,0000.03,0000.04,23.3,02.5,0673.8,30.8
2020-08-16T01:27:00Z,00000380,00000600,0000.83,0000.23,0000.09,0000.64,0000.33,-000.01,0000.05,-000.14,-000.06,23.3,02.5,0673.7,30.8
2020-08-16T01:28:00Z,00000380,00000600,0001.14,0000.60,-000.36,-000.02,0000.09,-000.28,0000.12,0000.07,-000.12,23.3,02.5,0673.7,30.8
2020-08-16T01:29:00Z,00000380,00000600,0000.33,0000.22,-000.19,-000.11,0000.17,-000.16,-000.15,-000.04,0000.22,23.3,02.5,0673.7,30.8
2020-08-16T01:30:00Z,00000380,00000600,-000.14,0000.55,0000.33,0000.12,0000.13,-000.14,0000.11,-000.01,-000.13,23.3,02.4,0673.7,30.7
2020-08-16T01:31:00Z,00000380,00000600,0001.64,0000.31,0000.27,0001.04,0000.22,0000.31,-000.02,-000.01,-000.03,23.3,02.4,0673.7,30.7
2020-08-16T01:32:00Z,00000380,00000600,0000.81,0000.40,0000.02,-000.48,-000.14,0000.09,-000.00,-000.01,0000.09,23.2,02.4,0673.7,30.8
2020-08-16T01:33:00Z,00000380,00000600,0000.64,-000.05,-000.27,0000.07,0000.28,-000.11,0000.08,0000.04,0000.08,23.2,02.4,0673.7,30.8
2020-08-16T01:34:00Z,00000380,00000600,0001.00,0000.32,0000.01,0000.22,0000.25,0000.04,-000.10,-000.01,-000.03,23.3,02.4,0673.7,30.8
2020-08-16T01:35:00Z,00000380,00000600,-000.10,0000.60,-000.05,0000.10,0000.02,-000.29,0000.01,0000.05,-000.07,23.3,02.5,0673.8,30.9
2020-08-16T01:36:00Z,00000380,00000600,0000.68,0000.28,0000.17,0000.50,-000.05,0000.27,-000.07,-000.07,0000.07,23.4,02.4,0673.8,30.8
2020-08-16T01:37:00Z,00000380,00000600,0001.10,0000.57,0000.00,0000.62,-000.01,0000.09,0000.01,-000.02,-000.11,23.3,02.4,0673.8,30.8
2020-08-16T01:38:00Z,00000380,00000600,0000.99,0000.33,-000.13,-000.64,-000.04,-000.08,-000.03,-000.00,0000.08,23.3,02.4,0673.7,30.8
2020-08-16T01:39:00Z,00000380,00000600,0000.81,0000.04,0000.05,0000.41,-000.27,0000.05,-000.10,0000.12,0000.01,23.3,02.3,0673.6,30.8
2020-08-16T01:40:00Z,00000380,00000600,0000.40,0000.39,0000.26,0001.51,-000.19,0000.03,0000.20,-000.07,-000.05,23.3,02.4,0673.6,30.8
2020-08-16T01:41:00Z,00000380,00000600,0001.76,0000.46,-000.23,0000.63,0000.05,0000.13,-000.11,0000.02,0000.07,23.3,02.4,0673.6,30.8
2020-08-16T01:42:00Z,00000380,00000600,0000.41,0000.03,0000.14,0000.30,0000.20,0000.07,-000.03,-000.01,-000.09,23.3,02.3,0673.6,30.8
2020-08-16T01:43:00Z,00000380,00000600,0000.45,0000.40,-000.03,-000.32,0000.03,0000.35,-000.01,-000.00,0000.04,23.2,02.3,0673.6,30.8
2020-08-16T01:44:00Z,00000380,00000600,0001.27,0000.40,0000.03,-000.26,0000.13,0000.16,0000.11,-000.04,0000.15,23.2,02.3,0673.6,30.7
2020-08-16T01:45:00Z,00000380,00000600,0000.75,0000.14,-000.02,0000.22,-000.45,0000.29,-000.10,0000.13,-000.18,23.2,02.3,0673.6,30.7
2020-08-16T01:46:00Z,00000380,00000600,0000.66,0000.32,0000.32,0000.22,0000.22,0000.20,0000.13,-000.16,0000.03,23.2,02.2,0673.6,30.7
2020-08-16T01:47:00Z,00000380,00000600,0001.30,0000.82,0000.31,0000.07,0000.18,0000.04,-000.17,-000.01,0000.10,23.2,02.2,0673.6,30.7
2020-08-16T01:48:00Z,00000380,00000600,0000.18,0000.24,0000.20,0000.55,0000.03,-000.17,-000.02,-000.02,0000.00,23.2,02.2,0673.7,30.8
2020-08-16T01:49:00Z,00000380,00000600,-000.48,-000.26,0000.07,0000.09,0000.40,-000.33,0000.05,0000.01,-000.15,23.2,02.2,0673.8,30.8
2020-08-16T01:50:00Z,00000380,00000600,0001.49,0000.59,0000.18,0000.44,-000.02,0000.23,0000.07,0000.14,0000.02,23.3,02.2,0673.8,30.8
2020-08-16T01:51:00Z,00000380,00000600,0000.65,-000.01,-000.16,0000.63,-000.10,-000.15,-000.14,-000.24,0000.23,23.3,02.2,0673.8,30.8
2020-08-16T01:52:00Z,00000380,00000600,0000.49,0000.38,0000.13,0001.17,-000.22,0000.17,-000.02,0000.12,-000.26,23.3,02.1,0673.8,30.8
2020-08-16T01:53:00Z,00000380,00000600,0001.03,0000.35,0000.55,-000.31,0000.12,-000.21,-000.02,0000.02,0000.09,23.3,02.2,0673.8,30.8
2020-08-16T01:54:00Z,00000380,00000600,0001.35,0000.62,-000.24,-000.14,0000.22,-000.19,0000.07,0000.01,0000.09,23.3,02.1,0673.8,30.8
2020-08-16T01:55:00Z,00000380,00000600,0000.94,0000.28,-000.07,0000.43,0000.28,-000.09,0000.03,-000.05,-000.00,23.3,02.2,0673.7,30.8
2020-08-16T01:56:00Z,00000380,00000600,0001.06,0000.72,0000.10,0000.38,0000.41,-000.15,-000.02,0000.12,0000.01,23.2,02.1,0673.7,30.8
2020-08-16T01:57:00Z,00000380,40000600,,,,,,,,,,23.2,02.1,0673.6,30.8
2020-08-16T01:58:00Z,00000380,60000600,,,,,,,,,,23.3,02.2,0672.6,30.8
2020-08-16T01:59:00Z,00000380,20000600,,,,,,,,,,23.4,02.1,0672.6,30.7
2020-08-16T02:00:00Z,00000380,20000600,,,,,,,,,,23.4,02.1,0672.6,30.7
2020-08-16T02:01:00Z,00000380,20000600,,,,,,,,,,23.5,02.1,0672.6,30.7
2020-08-16T02:02:00Z,00000380,20000600,,,,,,,,,,23.5,02.1,0672.6,30.7
2020-08-16T02:03:00Z,00000380,60000600,,,,,,,,,,23.5,02.1,0672.6,30.8
2020-08-16T02:04:00Z,00000380,40000600,0000.76,0000.89,0000.28,0000.22,0000.39,0000.05,-000.08,-000.02,0000.03,23.3,02.0,0673.7,30.8
2020-08-16T02:05:00Z,00000380,00000600,0000.92,0000.17,0000.20,-000.27,0000.04,0000.11,0000.08,-000.10,-000.05,23.3,02.1,0673.8,30.8
2020-08-16T02:06:00Z,00000380,00000600,0001.04,0000.24,0000.32,-000.22,0000.23,0000.46,-000.13,0000.16,-000.01,23.3,02.0,0673.7,30.9
2020-08-16T02:07:00Z,00000380,00000600,0000.82,0000.20,-000.01,0000.69,0000.01,-000.33,0000.00,-000.19,0000.03,23.3,02.0,0673.7,30.8
2020-08-16T02:08:00Z,00000380,00000600,0000.75,0000.71,0000.54,0000.33,0000.42,-000.14,0000.17,0000.05,0000.02,23.3,02.1,0673.8,30.8
2020-08-16T02:09:00Z,00000380,00000600,0001.44,0000.60,-000.02,0000.62,0000.42,0000.28,-000.13,0000.04,-000.06,23.3,02.0,0673.7,30.8
2020-08-16T02:10:00Z,00000380,00000600,0000.38,0000.58,0000.14,-000.62,0000.21,0000.22,-000.03,-000.13,-000.04,23.3,02.0,0673.7,30.8
2020-08-16T02:11:00Z,00000380,00000600,0000.95,0000.30,0000.07,0000.41,0000.15,0000.21,0000.05,0000.22,0000.19,23.2,02.0,0673.7,30.8
2020-08-16T02:12:00Z,00000380,00000600,0001.52,0000.72,0000.12,-000.41,0000.78,-000.14,-000.08,-000.08,-000.24,23.2,02.0,0673.7,30.8
2020-08-16T02:13:00Z,00000380,00000600,0000.93,0000.46,0000.52,0000.21,0000.61,-000.12,0000.04,0000.06,0000.24,23.2,02.0,0673.7,30.8
2020-08-16T02:14:00Z,00000380,00000600,0001.44,0001.01,0000.22,0000.62,0000.48,-000.01,0000.10,0000.04,-000.05,23.2,02.0,0673.7,30.8
2020-08-16T02:15:00Z,00000380,00000600,0000.36,0000.54,0000.27,0000.54,0000.09,0000.27,0000.03,-000.04,0000.04,23.2,02.0,0673.7,30.8
2020-08-16T02:16:00Z,00000380,00000600,0001.40,0001.08,0000.39,-000.92,-000.13,0000.10,-000.02,-000.09,-000.09,23.1,02.1,0673.7,30.7
2020-08-16T02:17:00Z,00000380,00000600,0001.17,0000.64,-000.14,-000.31,0000.31,-000.13,0000.01,0000.06,0000.13,23.1,02.0,0673.7,30.7
2020-08-16T02:18:00Z,00000380,00000600,0001.58,0000.24,0000.23,0000.25,0000.16,-000.07,0000.11,0000.02,-000.03,23.2,02.0,0673.7,30.8
2020-08-16T02:19:00Z,00000380,00000600,0001.15,0000.44,-000.25,-000.63,0000.38,-000.01,-000.05,0000.05,0000.08,23.2,02.0,0673.7,30.8
2020-08-16T02:20:00Z,00000380,00000600,0000.80,0000.62,0000.65,-000.38,0000.11,0000.24,-000.09,0000.09,-000.02,23.3,02.0,0673.7,30.8
2020-08-16T02:21:00Z,00000380,00000600,0000.48,-000.02,0000.42,-000.10,0000.52,0000.20,-000.10,0000.01,-000.08,23.3,02.0,0673.6,30.9
2020-08-16T02:22:00Z,00000380,00000600,0001.64,0000.11,0000.32,0000.30,0000.20,-000.31,0000.16,-000.04,0000.11,23.3,02.0,0673.6,30.8
2020-08-16T02:23:00Z,00000380,00000600,0001.03,0000.46,-000.18,-000.02,0000.19,0000.44,-000.05,0000.18,0000.08,23.3,02.0,0673.6,30.8
2020-08-16T02:24:00Z,00000380,00000600,0000.60,0000.71,0000.35,0000.27,0000.44,0000.04,0000.08,-000.08,-000.16,23.2,02.0,0673.6,30.8
2020-08-16T02:25:00Z,00000380,00000600,0001.26,0000.25,-000.23,0000.20,0000.51,0000.19,-000.04,-000.09,0000.07,23.2,02.0,0673.6,30.8
2020-08-16T02:26:00Z,00000380,00000600,0000.95,0000.77,-000.05,-000.05,0000.40,-000.19,0000.13,0000.12,0000.12,23.2,02.0,0673.6,30.8
2020-08-16T02:27:00Z,00000380,00000600,0001.39,0000.64,0000.01,-000.32,0000.39,0000.26,0000.09,0000.13,-000.04,23.2,02.0,0673.6,30.8
2020-08-16T02:28:00Z,00000380,00000600,0000.81,0000.53,0000.34,-000.23,0000.37,0000.13,-000.08,-000.03,0000.05,23.2,02.0,0673.6,30.7
2020-08-16T02:29:00Z,00000380,00000600,0000.49,0000.71,0000.24,0000.71,0000.15,-000.02,0000.14,-000.10,-000.01,23.2,02.0,0673.6,30.7
2020-08-16T02:30:00Z,00000380,00000600,0000.53,0001.19,0000.50,-000.15,0000.05,0000.26,-000.10,-000.05,0000.12,23.1,02.0,0673.5,30.7
2020-08-16T02:31:00Z,00000380,00000600,0002.00,0000.61,-000.06,0000.53,0000.23,-000.41,0000.11,0000.18,-000.02,23.1,02.1,0673.5,30.7
2020-08-16T02:32:00Z,00000380,00000600,0001.69,0000.48,0000.44,-000.64,0000.25,0000.21,0000.02,0000.09,-000.02,23.1,02.1,0673.6,30.7
2020-08-16T02:33:00Z,00000380,00000600,0000.38,0000.39,0000.25,-000.00,0000.41,0000.24,-000.07,-000.04,0000.03,23.1,02.1,0673.7,30.8
2020-08-16T02:34:00Z,00000380,00000600,0000.79,0000.86,-000.06,0000.33,0000.60,-000.10,0000.05,0000.02,0000.02,23.1,02.1,0673.7,30.8
2020-08-16T02:35:00Z,00000380,00000600,0001.33,0000.65,-000.03,-000.35,0000.01,-000.04,0000.03,0000.06,0000.14,23.2,02.1,0673.7,30.8
2020-08-16T02:36:00Z,00000380,00000600,0000.92,0000.31,0000.47,0000.04,0000.21,0000.18,0000.12,0000.10,-000.08,23.2,02.1,0673.7,30.9
2020-08-16T02:37:00Z,00000380,00000600,0000.80,0000.71,-000.20,-000.21,-000.07,-000.36,-000.00,-000.21,0000.01,23.3,02.1,0673.7,30.9
2020-08-16T02:38:00Z,00000380,00000600,0000.87,0001.02,0000.18,0000.25,0000.19,-000.03,-000.06,0000.17,0000.08,23.3,02.1,0673.7,30.9
2020-08-16T02:39:00Z,00000380,00000600,0002.01,0000.66,0000.31,0000.12,0000.55,-000.06,0000.18,0000.06,-000.03,23.2,02.1,0673.7,30.8
2020-08-16T02:40:00Z,00000380,00000600,0001.18,0001.00,-000.18,0000.25,0000.02,0000.13,0000.03,0000.00,0000.19,23.2,02.2,0673.6,30.8
2020-08-16T02:41:00Z,00000380,00000600,-000.06,0000.45,0000.09,-000.43,0000.30,0000.12,0000.03,0000.19,-000.01,23.2,02.1,0673.6,30.8
2020-08-16T02:42:00Z,00000380,00000600,0000.92,0000.71,0000.23,-000.10,-000.01,0000.02,0000.08,-000.01,0000.01,23.2,02.1,0673.6,30.8
2020-08-16T02:43:00Z,00000380,00000600,0001.01,0001.04,0000.20,-000.27,0000.14,0000.03,-000.08,-000.08,-000.09,23.2,02.2,0673.6,30.8
2020-08-16T02:44:00Z,00000380,00000600,0001.16,0000.66,0000.51,0000.69,0000.03,0000.12,0000.09,0000.11,0000.20,23.1,02.1,0673.7,30.7
2020-08-16T02:45:00Z,00000380,00000600,0001.10,0001.02,0000.46,-000.12,-000.29,0000.43,0000.16,-000.06,0000.11,23.1,02.2,0673.6,30.7
2020-08-16T02:46:00Z,00000380,00000600,0001.10,0000.27,0000.63,-000.28,-000.11,0000.66,0000.03,0000.11,-000.11,23.1,02.2,0673.6,30.7
2020-08-16T02:47:00Z,00000380,00000600,0001.08,0000.36,0000.25,-000.39,-000.04,0000.04,0000.02,0000.03,-000.01,23.1,02.3,0673.6,30.7
2020-08-16T02:48:00Z,00000380,00000600,0001.35,0000.78,0000.12,0000.16,0000.18,0000.37,-000.02,0000.24,0000.15,23.1,02.3,0673.7,30.8
2020-08-16T02:49:00Z,00000380,00000600,0001.27,0000.53,-000.04,0000.84,0000.31,0000.42,0000.17,-000.04,0000.15,23.1,02.4,0673.8,30.8
2020-08-16T02:50:00Z,00000380,00000600,0001.21,0000.32,0000.27,0000.49,0000.03,0000.27,0000.02,0000.03,-000.04,23.2,02.4,0673.8,30.8
2020-08-16T02:51:00Z,00000380,00000600,0000.81,0000.67,0000.15,-000.47,0000.01,-000.02,0000.01,0000.12,-000.01,23.2,02.4,0673.7,30.9
2020-08-16T02:52:00Z,00000380,00000600,0000.59,0000.17,0000.12,0000.66,-000.06,-000.67,0000.07,-000.13,0000.15,23.2,02.4,0673.7,30.9
2020-08-16T02:53:00Z,00000380,00000600,0000.61,0000.17,0000.16,-000.50,0000.13,0000.08,0000.01,0000.15,0000.01,23.2,02.4,0673.7,30.8
2020-08-16T02:54:00Z,00000380,00000600,0001.46,0000.96,-000.06,-001.01,0000.12,0000.31,0000.09,0000.03,-000.06,23.2,02.5,0673.7,30.8
2020-08-16T02:55:00Z,00000380,00000600,0001.27,0000.58,0000.01,-000.42,0000.10,0000.02,0000.10,0000.12,0000.14,23.2,02.4,0673.6,30.8
2020-08-16T02:56:00Z,00000380,00000600,0000.09,0001.00,0000.49,-000.23,-000.39,0000.69,0000.04,0000.03,0000.09,23.2,02.5,0673.6,30.8
2020-08-16T02:57:00Z,00000380,40000600,,,,,,,,,,23.2,02.4,0673.6,30.8
2020-08-16T02:58:00Z,00000380,60000600,,,,,,,,,,23.3,02.3,0672.5,30.8
2020-08-16T02:59:00Z,00000380,20000600,,,,,,,,,,23.4,02.3,0672.5,30.7
2020-08-16T03:00:00Z,00000380,20000600,,,,,,,,,,23.4,02.2,0672.5,30.7
2020-08-16T03:01:00Z,00000380,20010600,,,,,,,,,,23.4,02.2,0672.5,30.7
2020-08-16T03:02:00Z,00000380,20000600,,,,,,,,,,23.4,02.4,0672.5,30.7
2020-08-16T03:03:00Z,00000380,60000600,,,,,,,,,,23.4,02.4,0672.5,30.8
2020-08-16T03:04:00Z,00000380,40000600,0001.25,0000.46,0000.14,0000.86,-000.01,-000.14,0000.07,-000.02,0000.11,23.2,02.5,0673.5,30.8
2020-08-16T03:05:00Z,00000380,00000600,0000.90,0000.39,0000.27,0000.43,0000.08,-000.01,-000.12,0000.07,0000.02,23.2,02.6,0673.6,30.8
2020-08-16T03:06:00Z,00000380,00000600,0000.75,0000.32,-000.00,0000.53,0000.33,-000.18,0000.16,0000.05,0000.07,23.3,02.6,0673.6,30.9
2020-08-16T03:07:00Z,00000380,00000600,0000.82,0000.44,0000.07,0000.46,0000.05,-000.04,0000.01,0000.06,0000.01,23.3,02.6,0673.7,30.9
2020-08-16T03:08:00Z,00000380,00000600,0000.01,0000.13,0000.10,0000.13,-000.19,-000.38,0000.04,0000.03,-000.14,23.3,02.6,0673.7,30.9
2020-08-16T03:09:00Z,00000380,00000600,0000.86,0000.21,0000.37,0000.85,0000.30,0000.03,-000.03,0000.10,0000.22,23.3,02.6,0673.7,30.9
2020-08-16T03:10:00Z,00000380,00000600,0001.04,0000.01,0000.62,0000.26,0000.50,0000.09,-000.01,-000.03,-000.10,23.3,02.5,0673.7,30.8